Powrót do katalogu

STARLINK-2525

AktywnyŁącznośćVLEO
NORAD 48482·PAYLOAD·🇺🇸 United States

Wystrzelony May 9, 2021 z Cape Canaveral Space Force Station

Loading…

Następne Przeloty (najbliższe 24 godziny)

TLE

ŚwieżeSource: CelesTrak SupGP

Epoka: Sep 14, 2026, 20:43 UTC

1 48482C 21040BG  26257.86368056  .00046201  00000+0  14857-2 0  2573
2 48482  53.1601  33.5348 0001253  74.4727  97.6610 15.31678134    11

Śledź STARLINK-2525 w czasie rzeczywistym z AllMySat

Download on the App Store